LiveATC.Net - Listen to live air traffic control over the Internet! Contact LiveATC.net for advertising information


ICAO: EHRD  IATA: RTM   Airport: Rotterdam The Hague Airport
City: Rotterdam
Country: Netherlands   Continent: Europe
EHRD METAR Weather: EHRD 230255Z AUTO 17005KT 140V200 9000 -DZ FEW015CB BKN021 BKN034 BKN049 10/09 Q1017 NOSIG
EHRD Flight Activity (FlightAware)
EHRD Twr/App
Feed Status: DOWN
Last heard on: 2014-11-17 02:06:03 (6 days 1 hours 8 minutes ago)
EHRD Twr/App Audio Archives
FacilityFrequency
Rotterdam Approach127.025
Rotterdam Tower118.200

EHRD ADS-B Logs

NOTICE

Unauthorized use prohibited. See LiveATC.net Terms of Service


Find LiveATC Audio Streams


Airport/ARTCC Code

Frequency
(e.g., 124.400, 128.75)
Site-wide search

Browse LiveATC Feeds
LiveATC Coverage Map
Top 50 LiveATC Feeds
Bad Weather Areas

LiveATC FAQ
Offer a LiveATC Feed
Contact LiveATC.net
Press Inquiries

LiveATC on iPhone
LiveATC on Android

LiveATC Mobile
(Mobile browser)

ATC Audio Archives
Interesting Recordings

LiveATC Forums


Home Page
About LiveATC.net
Make a Donation
LiveATC Bookstore

Terms of Use
Privacy Policy

ATC/Radar Sites
U.S. ARTCC Freqs
Canadian Air Freqs

AIRMETs/SIGMETs

FAA Airport Status
Nat'l Airspace Status
Arrival Demand Charts


Server Software By:
Icecast.org
Liquidsoap

Please make a donation to help us keep growing!